SCP
0 0 0 0 0 0 0 0 0 0 0 0 0 0 0 0 0 0 0 0 0 0 0 0 0 0 0 0 0 0 0 0 0 0 -0 -0 -0 -0 -0 -0 -0 0 -0
0 0 0 0 0 0 0 0 0 0 0 0 0 0 0 0 0 0 0 0 0 0 0 0 0 0 0 0 0 0 0 0 0 0 0 0 -0 -0 -0 -0 -0 0 -0
0 0 0 0 0 0 0 0 0 0 0 0 0 0 0 0 0 0 0 0 0 0 0 0 0 0 0 0 0 0 0 0 0 0 0 0 0 -0 -0 -0 -0 0 0
0 0 0 0 0 0 0 0 0 0 0 0 0 0 0 0 0 0 0 0 0 0 0 0 0 0 0 0 0 0 0 0 0 0 0 0 0 -0 -0 -0 0 0 0
0 0 0 0 0 0 0 0 0 0 0 0 0 0 0 0 0 0 0 0 0 0 0 0 0 0 0 0 0 0 0 0 0 0 0 0 0 0 0 -0 0 0 0
0 0 0 0 0 0 0 0 0 0 0 0 0 0 0 0 0 0 0 0 0 0 0 0 0 0 0 0 0 0 0 0 0 0 0 0 0 0 0 0 0 0 0
0 0 -0 -0 0 0 0 0 0 0 0 0 0 0 0 0 0 0 0 0 0 0 0 0 0 0 0 0 0 0 0 0 0 0 0 0 0 0 0 0 0 0 0
0 0 0 0 0 0 0 0 0 0 0 0 0 0 0 0 0 0 0 0 0 0 0 0 0 0 0 0 0 0 0 0 0 0 0 0 0 0 0 0 0 0 0
0 0 0 0 0 0 0 0 0 0 0 0 0 0 0 0 0 0 0 0 0 0 0 0 0 0 0 0 0 0 0 0 0 0 0 0 0 0 0 0 0 0 0
0 0 0 0 0 0 0 0 0 0 0 0 0 0 0 0 0 0 0 0 0 0 0 0 0 0 0 0 0 0 0 0 0 0 0 0 0 0 0 0 0 0 0
0 0 0 0 0 0 0 0 0 0 0 0 0 0 0 0 0 0 0 0 0 0 0 0 0 0 0 0 0 0 0 0 0 0 0 0 0 0 0 0 0 0 0
0 0 0 0 0 0 0 0 0 0 0 0 0 0 0 0 0 0 0 0 0 0 0 0 0 0 0 0 0 0 0 0 0 0 0 0 0 0 0 0 0 0 0
0 0 0 0 0 0 0 0 0 0 0 0 0 0 0 0 0 0 0 0 0 0 0 0 0 0 0 0 0 0 0 0 0 0 0 0 0 0 0 0 0 0 0
0 0 0 0 0 0 0 0 0 0 0 0 0 0 0 0 0 0 0 0 0 0 0 0 0 0 0 0 0 0 0 0 0 0 0 0 0 0 0 0 0 0 0
0 0 0 0 0 0 0 0 0 0 0 0 0 0 0 0 0 0 0 0 0 0 0 0 0 0 0 0 0 0 0 0 0 0 0 0 0 0 0 0 0 0 0
0 0 0 0 0 0 0 0 0 0 0 -0 -0 0 0 0 0 0 0 0 0 0 0 0 0 0 0 0 0 0 0 0 0 0 0 0 0 0 0 0 0 0 0
0 0 0 0 0 0 0 0 0 0 0 0 -0 -0 0 0 0 0 0 0 0 0 0 0 0 0 0 0 0 0 0 0 0 0 0 0 0 0 0 0 0 0 0
0 0 0 0 0 0 0 0 0 0 0 0 0 0 -0 -0 0 0 0 0 0 0 0 0 0 0 0 0 0 0 0 0 0 0 0 0 0 0 0 0 0 0 0
0 0 0 0 0 0 0 0 0 0 0 0 0 0 0 -0 -0 0 0 0 0 0 0 0 0 0 0 0 0 0 0 0 0 0 0 0 0 0 0 0 0 0 0
0 0 0 0 0 0 -0 0 0 0 0 0 0 0 -0 0 -0 -0 -0 0 0 0 0 0 0 0 0 0 0 0 0 0 0 0 0 0 0 0 0 0 0 0 0
0 0 0 -0 0 0 0 0 0 -0 -0 -0 -0 0 0 0 0 -0 -0 0 0 0 0 0 0 0 0 0 0 0 0 0 0 0 0 0 0 0 0 0 0 0 0
0 0 0 0 0 0 0 0 0 0 0 -0 -0 -0 0 0 0 0 0 -0 0 0 0 0 0 0 0 0 0 0 0 0 0 0 0 0 0 0 0 0 0 0 0
0 0 0 0 0 0 0 0 0 0 0 0 0 -0 -0 -0 0 0 0 0 0 0 0 0 0 0 0 0 0 0 0 0 0 0 0 0 0 0 0 0 0 0 0
0 0 0 0 0 0 0 0 0 0 0 0 0 0 0 0 0 0 0 0 0 0 0 0 0 0 0 0 0 0 0 0 0 0 0 0 0 0 0 0 0 0 0
0 0 0 0 0 0 0 0 0 0 0 0 0 0 0 0 0 0 0 0 0 0 0 0 0 0 0 0 0 0 0 0 0 0 0 0 0 0 0 0 0 0 0
0 0 0 0 0 0 0 0 0 0 0 0 0 0 0 0 0 0 0 0 0 0 0 0 0 0 0 0 0 0 0 0 0 0 0 0 0 0 0 0 0 0 0
Wind_Speed_500mb
20 8 26 33 37 37 34 37 41 43 44 44 42 39 39 38 37 34 31 30 32 31 32 28 29 29 34 31 30 27 27 27 30 32 40 40 41 43 50 48 41 36 32
20 10 22 32 37 36 31 32 33 38 41 42 41 41 41 41 40 39 33 31 30 30 27 31 33 32 30 38 38 36 28 26 32 36 42 40 42 47 48 40 34 31 23
5 6 17 32 35 36 34 30 31 31 35 36 36 37 38 40 40 38 34 33 31 30 33 39 33 33 34 36 37 38 36 32 39 39 44 43 45 47 46 38 31 24 18
2 6 7 28 35 35 36 35 31 30 30 31 31 32 37 42 40 38 37 39 37 30 34 35 34 34 36 36 37 38 37 39 46 40 45 47 47 45 43 33 25 21 21
2 5 5 17 33 34 37 38 36 31 30 29 29 29 36 43 42 40 39 44 39 32 31 32 38 33 27 40 39 40 41 45 47 46 51 54 45 39 38 29 24 21 24
3 4 6 7 27 33 37 39 39 36 33 30 28 27 33 43 46 44 46 44 42 37 36 35 33 38 37 38 42 46 46 54 48 51 52 47 44 39 33 23 24 21 21
2 5 8 6 15 31 34 37 40 39 36 33 32 33 31 41 47 44 50 48 44 37 35 35 36 36 43 46 44 48 55 56 53 57 48 46 43 37 28 26 24 19 17
7 11 18 16 12 25 37 41 41 41 40 37 39 41 39 39 45 48 50 50 45 41 36 40 42 40 49 53 51 52 52 54 54 49 50 46 40 31 30 26 24 22 21
8 16 27 33 25 22 34 42 41 40 43 43 41 44 47 45 46 48 51 52 49 45 42 39 49 47 62 58 57 56 53 50 50 56 52 45 38 33 30 28 25 22 23
9 13 18 25 34 39 35 43 48 45 47 47 46 48 50 52 52 52 54 56 52 46 47 43 49 55 65 62 61 54 60 57 59 55 52 48 39 36 32 30 27 25 22
15 19 23 24 26 30 37 45 49 52 53 51 51 51 54 56 56 56 54 55 53 49 43 48 51 53 62 64 60 52 64 67 67 64 59 53 43 38 32 32 30 24 21
19 25 31 33 36 35 35 37 37 58 60 61 56 57 58 60 61 61 58 50 49 49 45 53 55 56 58 69 66 56 69 78 69 62 60 50 44 42 39 34 29 25 24
24 26 30 35 39 42 42 42 44 46 39 64 63 59 65 68 66 68 66 58 54 55 53 57 65 61 64 67 70 67 63 75 64 60 56 50 46 43 38 36 30 28 26
26 33 28 28 31 35 40 44 47 46 47 38 73 72 73 80 81 79 79 71 64 69 68 61 76 68 70 69 71 71 70 66 61 59 64 57 54 45 41 38 34 30 26
30 27 20 20 21 25 30 34 45 51 55 57 42 24 73 76 92 90 88 82 78 77 78 69 82 71 72 72 69 74 81 78 69 64 66 59 56 50 46 43 41 35 26
24 21 23 26 29 31 32 35 38 40 51 64 65 58 30 59 91 95 91 89 89 81 84 78 84 81 76 74 75 75 74 77 77 75 74 69 60 55 51 42 41 42 39
22 26 32 36 41 44 49 51 50 50 52 54 58 50 66 60 38 89 96 97 92 88 89 87 82 86 80 77 77 75 78 79 81 85 75 75 66 65 56 44 53 43 44
25 29 36 41 46 50 56 62 67 69 72 72 63 61 50 54 69 45 96 110 101 92 93 96 89 92 91 86 84 80 83 85 91 92 75 79 80 66 68 56 59 50 50
24 32 35 38 48 58 65 72 77 81 83 90 90 81 75 67 63 69 60 102 104 103 101 102 98 98 100 96 90 86 88 81 95 91 85 83 80 79 72 67 64 57 59
30 38 50 62 73 82 91 94 96 101 101 97 95 95 92 89 84 68 77 63 97 120 107 113 111 101 103 106 98 89 88 90 85 91 93 91 85 81 81 72 74 65 65
49 63 76 89 95 97 99 100 105 106 103 100 97 98 101 102 99 93 79 86 71 83 115 122 115 111 109 111 102 97 94 93 93 90 91 99 83 86 91 75 83 73 76
76 82 85 88 90 93 96 100 99 104 112 114 112 108 104 100 101 99 94 92 98 82 75 124 122 113 107 121 107 97 84 91 97 94 94 109 107 96 89 81 101 81 90
82 86 90 90 90 87 81 86 92 97 99 103 103 101 106 101 96 95 98 92 87 99 100 73 130 127 122 121 114 87 54 49 87 101 110 98 95 104 98 90 89 94 85
85 89 87 84 82 78 73 75 76 82 88 87 92 92 84 82 86 84 87 86 83 84 106 95 94 147 132 130 124 115 95 80 72 56 88 94 107 110 113 97 100 90 101
87 89 82 78 75 71 71 72 74 79 83 87 83 82 83 82 85 88 89 92 94 87 84 92 71 133 148 147 144 130 116 111 88 88 72 91 91 90 91 92 93 102 107
87 82 76 74 71 69 69 67 69 75 80 84 87 89 87 84 88 91 94 85 85 87 85 104 107 111 161 150 152 129 140 117 99 98 73 103 107 97 93 92 96 102 103
Wind_Direction_500mb
353 284 193 195 190 192 192 192 194 193 193 195 196 198 199 199 197 198 199 201 204 210 212 195 189 196 190 174 173 163 162 161 155 145 143 137 138 138 136 138 135 135 128
316 272 208 197 195 195 196 195 194 197 200 202 205 206 208 206 200 197 195 194 195 194 186 166 176 181 179 173 175 172 168 161 156 150 148 146 145 144 146 140 143 124 121
289 295 210 199 200 199 196 203 198 202 202 205 207 207 208 202 198 194 190 185 186 188 188 174 175 185 183 179 182 181 177 174 159 156 157 150 149 152 145 145 136 129 119
181 316 218 205 205 204 200 208 211 212 210 212 212 211 205 198 190 186 181 174 171 180 169 167 175 181 188 188 184 184 183 174 164 164 157 153 151 155 156 149 144 133 123
125 282 225 218 214 211 210 209 217 218 220 217 218 210 201 192 190 187 183 177 176 182 170 178 179 185 188 184 184 182 177 172 170 165 157 159 162 160 154 153 142 136 127
110 251 272 262 228 223 219 216 217 221 226 225 217 216 207 192 199 198 192 189 183 180 181 186 186 189 181 180 178 175 172 171 171 165 167 162 160 163 158 161 151 145 132
226 219 241 276 244 230 234 230 225 227 226 220 215 212 212 199 203 203 196 192 193 194 204 206 209 201 189 169 167 171 170 175 174 167 175 174 175 167 160 161 157 148 145
268 236 235 256 272 249 236 238 236 230 226 217 214 214 214 209 208 205 204 206 208 215 221 212 217 204 178 166 172 180 181 180 184 176 185 183 182 166 164 165 159 159 147
292 258 260 244 247 259 244 243 245 237 231 222 216 220 220 220 214 218 217 219 221 224 226 227 216 201 178 177 183 183 188 184 183 186 191 188 186 172 169 164 164 157 153
277 265 260 245 254 250 257 249 249 244 235 225 224 223 223 224 222 223 227 229 228 228 228 224 216 200 187 184 193 184 185 188 190 199 198 187 183 168 167 167 163 160 155
284 284 277 277 272 266 259 255 253 249 248 231 229 232 229 227 228 229 225 228 229 225 225 218 216 200 195 192 199 195 188 193 195 200 197 184 177 182 180 171 165 166 166
275 273 279 279 279 276 272 268 273 257 244 237 237 229 235 231 231 231 228 223 232 222 223 217 207 200 200 199 199 200 209 196 194 196 195 197 189 185 184 176 175 174 171
326 320 299 284 280 278 277 275 270 273 265 260 233 236 237 236 235 231 229 229 229 223 222 216 208 204 205 203 204 200 208 193 194 198 200 197 204 201 203 190 193 184 182
317 319 307 300 295 292 285 279 278 278 267 273 251 240 235 228 233 232 232 231 231 221 221 221 211 212 206 205 209 207 206 205 209 212 199 202 195 199 214 198 196 194 192
314 315 313 317 316 313 310 301 283 280 279 276 278 276 237 235 229 228 232 228 226 224 222 219 214 214 209 206 212 215 209 214 216 215 205 203 206 208 211 197 196 189 206
313 318 321 322 320 316 312 310 307 302 290 288 288 282 271 247 233 229 231 226 224 225 225 221 216 213 213 211 213 219 212 213 217 213 214 204 207 214 211 205 203 193 189
310 309 309 307 310 310 309 306 304 302 299 296 296 299 281 272 246 235 232 231 226 227 227 225 223 219 216 214 218 218 218 215 213 215 214 205 207 207 207 214 203 214 208
314 309 304 302 303 304 303 300 299 297 295 292 291 290 292 286 274 263 238 232 229 226 227 227 224 221 218 216 217 218 219 224 218 218 219 206 204 216 208 214 210 212 207
285 285 288 292 293 294 293 292 291 288 285 287 283 280 281 282 288 275 267 235 232 225 227 229 225 226 221 216 215 216 219 218 217 213 217 215 211 207 211 211 215 220 215
279 284 290 291 291 291 295 295 293 290 286 279 272 272 273 275 279 277 269 262 232 228 219 226 227 225 229 216 216 215 217 218 223 220 218 210 214 213 212 211 212 216 213
298 295 297 298 297 297 296 293 289 287 285 280 275 269 266 266 269 273 265 267 254 225 223 220 224 226 225 224 212 213 217 219 221 217 213 210 212 217 215 211 217 216 207
306 303 302 301 300 297 293 289 286 283 280 280 278 273 269 266 263 265 267 256 255 250 232 219 213 212 217 223 209 210 203 211 217 222 217 213 210 210 218 224 226 221 212
319 318 314 310 304 298 291 289 288 286 283 280 278 278 275 271 266 261 261 258 254 254 250 224 215 211 210 219 215 208 197 209 208 214 223 221 224 213 223 222 239 222 211
320 317 313 308 305 302 300 295 291 288 284 281 281 280 276 269 265 259 255 254 247 250 245 247 220 216 209 214 210 213 217 213 193 204 211 207 212 212 215 222 221 237 229
321 320 316 312 309 307 303 299 294 289 285 283 278 274 269 263 258 255 251 249 248 246 248 251 247 208 212 218 213 209 211 212 213 205 205 212 214 220 211 212 223 215 214
325 322 320 317 315 313 308 302 297 291 288 284 281 276 270 267 265 258 254 252 250 247 243 237 240 221 215 221 220 210 212 207 207 204 204 206 210 208 211 217 212 210 209
Wind_Speed_850mb
20 8 26 33 37 37 34 37 41 43 44 44 42 39 39 38 37 34 31 30 32 31 32 28 29 29 34 31 30 27 27 27 30 32 40 40 41 43 50 48 41 36 32
20 10 22 32 37 36 31 32 33 38 41 42 41 41 41 41 40 39 33 31 30 30 27 31 33 32 30 38 38 36 28 26 32 36 42 40 42 47 48 40 34 31 23
5 6 17 32 35 36 34 30 31 31 35 36 36 37 38 40 40 38 34 33 31 30 33 39 33 33 34 36 37 38 36 32 39 39 44 43 45 47 46 38 31 24 18
2 6 7 28 35 35 36 35 31 30 30 31 31 32 37 42 40 38 37 39 37 30 34 35 34 34 36 36 37 38 37 39 46 40 45 47 47 45 43 33 25 21 21
2 5 5 17 33 34 37 38 36 31 30 29 29 29 36 43 42 40 39 44 39 32 31 32 38 33 27 40 39 40 41 45 47 46 51 54 45 39 38 29 24 21 24
3 4 6 7 27 33 37 39 39 36 33 30 28 27 33 43 46 44 46 44 42 37 36 35 33 38 37 38 42 46 46 54 48 51 52 47 44 39 33 23 24 21 21
2 5 8 6 15 31 34 37 40 39 36 33 32 33 31 41 47 44 50 48 44 37 35 35 36 36 43 46 44 48 55 56 53 57 48 46 43 37 28 26 24 19 17
7 11 18 16 12 25 37 41 41 41 40 37 39 41 39 39 45 48 50 50 45 41 36 40 42 40 49 53 51 52 52 54 54 49 50 46 40 31 30 26 24 22 21
8 16 27 33 25 22 34 42 41 40 43 43 41 44 47 45 46 48 51 52 49 45 42 39 49 47 62 58 57 56 53 50 50 56 52 45 38 33 30 28 25 22 23
9 13 18 25 34 39 35 43 48 45 47 47 46 48 50 52 52 52 54 56 52 46 47 43 49 55 65 62 61 54 60 57 59 55 52 48 39 36 32 30 27 25 22
15 19 23 24 26 30 37 45 49 52 53 51 51 51 54 56 56 56 54 55 53 49 43 48 51 53 62 64 60 52 64 67 67 64 59 53 43 38 32 32 30 24 21
19 25 31 33 36 35 35 37 37 58 60 61 56 57 58 60 61 61 58 50 49 49 45 53 55 56 58 69 66 56 69 78 69 62 60 50 44 42 39 34 29 25 24
24 26 30 35 39 42 42 42 44 46 39 64 63 59 65 68 66 68 66 58 54 55 53 57 65 61 64 67 70 67 63 75 64 60 56 50 46 43 38 36 30 28 26
26 33 28 28 31 35 40 44 47 46 47 38 73 72 73 80 81 79 79 71 64 69 68 61 76 68 70 69 71 71 70 66 61 59 64 57 54 45 41 38 34 30 26
30 27 20 20 21 25 30 34 45 51 55 57 42 24 73 76 92 90 88 82 78 77 78 69 82 71 72 72 69 74 81 78 69 64 66 59 56 50 46 43 41 35 26
24 21 23 26 29 31 32 35 38 40 51 64 65 58 30 59 91 95 91 89 89 81 84 78 84 81 76 74 75 75 74 77 77 75 74 69 60 55 51 42 41 42 39
22 26 32 36 41 44 49 51 50 50 52 54 58 50 66 60 38 89 96 97 92 88 89 87 82 86 80 77 77 75 78 79 81 85 75 75 66 65 56 44 53 43 44
25 29 36 41 46 50 56 62 67 69 72 72 63 61 50 54 69 45 96 110 101 92 93 96 89 92 91 86 84 80 83 85 91 92 75 79 80 66 68 56 59 50 50
24 32 35 38 48 58 65 72 77 81 83 90 90 81 75 67 63 69 60 102 104 103 101 102 98 98 100 96 90 86 88 81 95 91 85 83 80 79 72 67 64 57 59
30 38 50 62 73 82 91 94 96 101 101 97 95 95 92 89 84 68 77 63 97 120 107 113 111 101 103 106 98 89 88 90 85 91 93 91 85 81 81 72 74 65 65
49 63 76 89 95 97 99 100 105 106 103 100 97 98 101 102 99 93 79 86 71 83 115 122 115 111 109 111 102 97 94 93 93 90 91 99 83 86 91 75 83 73 76
76 82 85 88 90 93 96 100 99 104 112 114 112 108 104 100 101 99 94 92 98 82 75 124 122 113 107 121 107 97 84 91 97 94 94 109 107 96 89 81 101 81 90
82 86 90 90 90 87 81 86 92 97 99 103 103 101 106 101 96 95 98 92 87 99 100 73 130 127 122 121 114 87 54 49 87 101 110 98 95 104 98 90 89 94 85
85 89 87 84 82 78 73 75 76 82 88 87 92 92 84 82 86 84 87 86 83 84 106 95 94 147 132 130 124 115 95 80 72 56 88 94 107 110 113 97 100 90 101
87 89 82 78 75 71 71 72 74 79 83 87 83 82 83 82 85 88 89 92 94 87 84 92 71 133 148 147 144 130 116 111 88 88 72 91 91 90 91 92 93 102 107
87 82 76 74 71 69 69 67 69 75 80 84 87 89 87 84 88 91 94 85 85 87 85 104 107 111 161 150 152 129 140 117 99 98 73 103 107 97 93 92 96 102 103
Wind_Direction_850mb
353 284 193 195 190 192 192 192 194 193 193 195 196 198 199 199 197 198 199 201 204 210 212 195 189 196 190 174 173 163 162 161 155 145 143 137 138 138 136 138 135 135 128
316 272 208 197 195 195 196 195 194 197 200 202 205 206 208 206 200 197 195 194 195 194 186 166 176 181 179 173 175 172 168 161 156 150 148 146 145 144 146 140 143 124 121
289 295 210 199 200 199 196 203 198 202 202 205 207 207 208 202 198 194 190 185 186 188 188 174 175 185 183 179 182 181 177 174 159 156 157 150 149 152 145 145 136 129 119
181 316 218 205 205 204 200 208 211 212 210 212 212 211 205 198 190 186 181 174 171 180 169 167 175 181 188 188 184 184 183 174 164 164 157 153 151 155 156 149 144 133 123
125 282 225 218 214 211 210 209 217 218 220 217 218 210 201 192 190 187 183 177 176 182 170 178 179 185 188 184 184 182 177 172 170 165 157 159 162 160 154 153 142 136 127
110 251 272 262 228 223 219 216 217 221 226 225 217 216 207 192 199 198 192 189 183 180 181 186 186 189 181 180 178 175 172 171 171 165 167 162 160 163 158 161 151 145 132
226 219 241 276 244 230 234 230 225 227 226 220 215 212 212 199 203 203 196 192 193 194 204 206 209 201 189 169 167 171 170 175 174 167 175 174 175 167 160 161 157 148 145
268 236 235 256 272 249 236 238 236 230 226 217 214 214 214 209 208 205 204 206 208 215 221 212 217 204 178 166 172 180 181 180 184 176 185 183 182 166 164 165 159 159 147
292 258 260 244 247 259 244 243 245 237 231 222 216 220 220 220 214 218 217 219 221 224 226 227 216 201 178 177 183 183 188 184 183 186 191 188 186 172 169 164 164 157 153
277 265 260 245 254 250 257 249 249 244 235 225 224 223 223 224 222 223 227 229 228 228 228 224 216 200 187 184 193 184 185 188 190 199 198 187 183 168 167 167 163 160 155
284 284 277 277 272 266 259 255 253 249 248 231 229 232 229 227 228 229 225 228 229 225 225 218 216 200 195 192 199 195 188 193 195 200 197 184 177 182 180 171 165 166 166
275 273 279 279 279 276 272 268 273 257 244 237 237 229 235 231 231 231 228 223 232 222 223 217 207 200 200 199 199 200 209 196 194 196 195 197 189 185 184 176 175 174 171
326 320 299 284 280 278 277 275 270 273 265 260 233 236 237 236 235 231 229 229 229 223 222 216 208 204 205 203 204 200 208 193 194 198 200 197 204 201 203 190 193 184 182
317 319 307 300 295 292 285 279 278 278 267 273 251 240 235 228 233 232 232 231 231 221 221 221 211 212 206 205 209 207 206 205 209 212 199 202 195 199 214 198 196 194 192
314 315 313 317 316 313 310 301 283 280 279 276 278 276 237 235 229 228 232 228 226 224 222 219 214 214 209 206 212 215 209 214 216 215 205 203 206 208 211 197 196 189 206
313 318 321 322 320 316 312 310 307 302 290 288 288 282 271 247 233 229 231 226 224 225 225 221 216 213 213 211 213 219 212 213 217 213 214 204 207 214 211 205 203 193 189
310 309 309 307 310 310 309 306 304 302 299 296 296 299 281 272 246 235 232 231 226 227 227 225 223 219 216 214 218 218 218 215 213 215 214 205 207 207 207 214 203 214 208
314 309 304 302 303 304 303 300 299 297 295 292 291 290 292 286 274 263 238 232 229 226 227 227 224 221 218 216 217 218 219 224 218 218 219 206 204 216 208 214 210 212 207
285 285 288 292 293 294 293 292 291 288 285 287 283 280 281 282 288 275 267 235 232 225 227 229 225 226 221 216 215 216 219 218 217 213 217 215 211 207 211 211 215 220 215
279 284 290 291 291 291 295 295 293 290 286 279 272 272 273 275 279 277 269 262 232 228 219 226 227 225 229 216 216 215 217 218 223 220 218 210 214 213 212 211 212 216 213
298 295 297 298 297 297 296 293 289 287 285 280 275 269 266 266 269 273 265 267 254 225 223 220 224 226 225 224 212 213 217 219 221 217 213 210 212 217 215 211 217 216 207
306 303 302 301 300 297 293 289 286 283 280 280 278 273 269 266 263 265 267 256 255 250 232 219 213 212 217 223 209 210 203 211 217 222 217 213 210 210 218 224 226 221 212
319 318 314 310 304 298 291 289 288 286 283 280 278 278 275 271 266 261 261 258 254 254 250 224 215 211 210 219 215 208 197 209 208 214 223 221 224 213 223 222 239 222 211
320 317 313 308 305 302 300 295 291 288 284 281 281 280 276 269 265 259 255 254 247 250 245 247 220 216 209 214 210 213 217 213 193 204 211 207 212 212 215 222 221 237 229
321 320 316 312 309 307 303 299 294 289 285 283 278 274 269 263 258 255 251 249 248 246 248 251 247 208 212 218 213 209 211 212 213 205 205 212 214 220 211 212 223 215 214
325 322 320 317 315 313 308 302 297 291 288 284 281 276 270 267 265 258 254 252 250 247 243 237 240 221 215 221 220 210 212 207 207 204 204 206 210 208 211 217 212 210 209